Regional Weather Roundup
Issued by NWS

Home | Current Version | Previous Version | Text Only | Print | Product List | Glossary Off
Versions: 1 2 3 4 5 6 7 8 9 10 11 12 13 14 15 16 17 18 19 20 21 22 23 24 25 26 27 28 29 30 31 32 33 34 35 36 37 38 39 40 41 42 43 44 45 46 47 48 49 50

560
ASUS44 KMEG 280800
RWRTN
TENNESSEE HOURLY STATE WEATHER ROUNDUP
NATIONAL WEATHER SERVICE MEMPHIS TN
300 AM CDT THU JUL 28 2016

TNZ002-004-019-021-049-052-054-088>092-280900-
WEST TENNESSEE

CITY           SKY/WX    TMP DP  RH WIND       PRES   REMARKS
MEMPHIS INTL   RAIN      77  74  90 SW6       29.90F
NWS MEMPHIS      N/A     75 N/A N/A MISG        N/A
JACKSON        CLOUDY    76  75  97 CALM      29.90F
DYERSBURG      CLOUDY    75  73  94 CALM      29.91R
UNION CITY     CLOUDY    73  73 100 CALM      29.90F
PARIS          CLOUDY    72  72 100 E3        29.92F
LEXINGTON      CLOUDY    75  73  94 S5        29.92S
$$

TNZ008-025-027-028-033-062-065-066-280900-
NORTH MIDDLE TENNESSEE

CITY           SKY/WX    TMP DP  RH WIND       PRES   REMARKS
NASHVILLE      CLOUDY    75  72  90 NW5       29.94S
CLARKSVILLE    HVY RAIN  72  70  93 SE3       29.93R FOG
COOKEVILLE     CLOUDY    77  72  83 S7        29.97S
CROSSVILLE     MOCLDY    73  69  87 VRB3      30.03F
$$

TNZ061-075-076-078-094-096-097-280900-
SOUTH MIDDLE TENNESSEE

CITY           SKY/WX    TMP DP  RH WIND       PRES   REMARKS
TULLAHOMA      MOCLDY    75  72  88 S6        29.99S
WINCHESTER     MOCLDY    75  72  88 S5        29.98F
MCMINNVILLE    CLOUDY    77  73  88 CALM      29.98F
COLUMBIA       CLOUDY   N/A N/A N/A S5        29.93S
SHELBYVILLE    CLOUDY    79  75  89 S6        29.97S
$$

TNZ017-018-042-046-047-280900-
NORTHEAST TENNESSEE

CITY           SKY/WX    TMP DP  RH WIND       PRES   REMARKS
TRI CITIES     CLOUDY    70  69  97 CALM      30.02F
$$

TNZ012-013-036-069-073-074-280900-
CENTRAL EAST TENNESSEE

CITY           SKY/WX    TMP DP  RH WIND       PRES   REMARKS
KNOXVILLE      CLEAR     78  68  71 SW12      29.98F
OAK RIDGE      CLOUDY    80  68  66 VRB5      30.00S
GATLINBURG     CLEAR     79  68  69 W5        29.98F
$$

TNZ083-085-099-280900-
SOUTHEAST TENNESSEE

CITY           SKY/WX    TMP DP  RH WIND       PRES   REMARKS
CHATTANOOGA    CLOUDY    77  69  76 S6        29.99F
$$

SKY/WX REPORTED AS FAIR MEANS FEW OR NO CLOUDS BELOW
12 THOUSAND FEET.





USA.gov is the U.S. government's official web portal to all federal, state and local government web resources and services.